Weather History for KQIR - November, 2013

Change the Weather History Date:

Saturday, November 23, 2013

  Actual Average Record
Temperature  
Mean Temperature 67 °F -  
Max Temperature 73 °F - - ()
Min Temperature 61 °F - - ()
Cooling Degree Days 2    
Growing Degree Days 17 (Base 50)    
Moisture  
Dew Point 58 °F    
Average Humidity 76    
Maximum Humidity 89    
Minimum Humidity 57    
Precipitation  
Precipitation 0.00 in - - ()
Sea Level Pressure  
Sea Level Pressure 30.01 in    
Wind  
Wind Speed 10 mph ()    
Max Wind Speed 18 mph    
Max Gust Speed -    
Visibility 6.2 miles    
Events      
T = Trace of Precipitation, MM = Missing Value Source: Averaged Metar Reports

Daily Weather History Graph

Daily Weather History Graph

Search for Another Location

Airport or City:

Trip Planner

Search our weather history database for the weather conditions in past years. The results will help you decide how hot, cold, wet, or windy it might be!

Date:

Astronomy

Nov. 23, 2013 Rise Set
Actual Time 5:57 AM AST 4:44 PM AST
Civil Twilight 5:32 AM AST 5:09 PM AST
Nautical Twilight 5:04 AM AST 5:37 PM AST
Astronomical Twilight 4:37 AM AST 6:04 PM AST
Moon 9:39 PM AST (11/23) 10:10 AM AST (11/23)
Length of Visible Light 11h 36m
Length of Day
10h 47m
Waning Gibbous, 72% of the Moon is Illuminated
Nov 23
Waning Gibbous
Nov 25
Last Quarter
Dec 3
New
Dec 9
First Quarter
Dec 17
Full

Hourly Weather History & Observations

Time (AST) Temp. Dew Point Humidity Pressure Visibility Wind Dir Wind Speed Gust Speed Precip Events Conditions
12:55 AM 62.4 °F 56.8 °F 82% 29.97 in 6.2 mi WNW 12.7 mph - N/A   Clear
1:55 AM 61.3 °F 58.1 °F 89% 29.97 in 6.2 mi WNW 11.5 mph - N/A   Clear
2:55 AM 61.3 °F 57.6 °F 87% 29.97 in 6.2 mi West 11.5 mph - N/A   Clear
3:55 AM 61.2 °F 57.6 °F 88% 29.98 in 6.2 mi West 11.5 mph - N/A   Clear
4:55 AM 61.2 °F 57.2 °F 87% 29.99 in 6.2 mi WNW 12.7 mph - N/A   Clear
5:55 AM 61.0 °F 57.6 °F 88% 30.01 in 6.2 mi WNW 11.5 mph - N/A   Clear
6:55 AM 61.9 °F 58.3 °F 88% 30.04 in 6.2 mi WNW 12.7 mph - N/A   Clear
7:55 AM 65.5 °F 59.7 °F 82% 30.05 in 6.2 mi WNW 13.8 mph - N/A   Clear
8:55 AM 68.2 °F 61.2 °F 78% 30.06 in 6.2 mi NW 16.1 mph - N/A   Clear
9:55 AM 70.5 °F 59.9 °F 69% 30.05 in 6.2 mi NW 18.4 mph - N/A   Clear
10:55 AM 72.3 °F 59.7 °F 64% 30.02 in 6.2 mi NW 15.0 mph - N/A   Clear
11:55 AM 72.9 °F 59.2 °F 62% 30.00 in 6.2 mi NW 16.1 mph - N/A   Clear
12:55 PM 73.4 °F 59.0 °F 61% 29.98 in 6.2 mi NNW 16.1 mph - N/A   Clear
1:55 PM 73.6 °F 57.6 °F 57% 29.98 in 6.2 mi NNW 13.8 mph - N/A   Clear
2:55 PM 73.4 °F 57.6 °F 58% 29.98 in 6.2 mi NNW 13.8 mph - N/A   Clear
3:55 PM 72.1 °F 58.3 °F 62% 29.98 in 6.2 mi NW 13.8 mph - N/A   Clear
4:55 PM 69.8 °F 58.1 °F 66% 29.99 in 6.2 mi NNW 10.4 mph - N/A   Clear
5:55 PM 67.8 °F 57.9 °F 71% 30.02 in 6.2 mi NW 9.2 mph - N/A   Clear
6:55 PM 66.0 °F 56.7 °F 72% 30.04 in 6.2 mi WNW 5.8 mph - N/A   Clear
7:55 PM 63.9 °F 57.7 °F 80% 30.04 in 6.2 mi WNW 4.6 mph - N/A   Clear
8:55 PM 64.0 °F 57.2 °F 78% 30.04 in 6.2 mi Calm Calm - N/A   Clear
9:55 PM 61.5 °F 56.7 °F 84% 30.04 in 6.2 mi NW 4.6 mph - N/A   Clear
10:55 PM 62.6 °F 55.8 °F 78% 30.04 in 6.2 mi NW 3.5 mph - N/A   Clear
11:55 PM 61.0 °F 55.8 °F 83% 30.02 in 6.2 mi NW 4.6 mph - N/A   Clear